Regional Weather Roundup
Issued by NWS

Home | Current Version | Previous Version | Text Only | Print | Product List | Glossary On
Versions: 1 2 3 4 5 6 7 8 9 10 11 12 13 14 15 16 17 18 19 20 21 22 23 24 25 26 27 28 29 30 31 32 33 34 35 36 37 38 39 40 41 42 43 44 45 46 47 48 49 50
000
ASUS43 KDTX 201910
RWRMI
MICHIGAN HOURLY REGIONAL WEATHER ROUNDUP
NATIONAL WEATHER SERVICE DETROIT/PONTIAC MI
200 PM EST MON NOV 20 2017

NOTE: "FAIR" INDICATES FEW OR NO CLOUDS BELOW 12,000 FEET WITH NO
SIGNIFICANT WEATHER AND/OR OBSTRUCTION TO VISIBILITY.

MIZ047>049-052>055-059>063-066>070-074>076-081>083-202000-
SOUTHEAST LOWER MICHIGAN

CITY           SKY/WX    TMP DP  RH WIND       PRES   REMARKS
ADRIAN         SUNNY     46  29  51 SW16G29   29.94F
ALMA           SUNNY     44  30  57 S13G21    29.83F
ANN ARBOR      SUNNY     47  28  47 S17G29    29.90F
BAD AXE        SUNNY     44  29  55 SW12      29.82F
CARO           SUNNY     46  29  53 SW14      29.83F
DETROIT CITY   SUNNY    N/A N/A N/A SW24G32   29.91F
DETROIT        PTSUNNY   47  28  47 SW24G31   29.93F
FLINT          SUNNY     47  27  45 SW16G25   29.86F
GROSSE ILE     SUNNY     45  32  61 S16G22    29.93F
HILLSDALE      SUNNY     46  28  49 S13G24    29.89F
HOWELL         SUNNY     48  28  46 SW16G23   29.85F

CITY           SKY/WX    TMP DP  RH WIND       PRES   REMARKS
JACKSON        SUNNY     48  28  46 S18G30    29.87F
LAMBERTVILLE   SUNNY     49  27  42 SW16G24   29.95F
LANSING        SUNNY     48  29  47 S16G24    29.85F
LAPEER         FAIR      47  28  47 SW14G21   29.85F
MASON          SUNNY     49  28  43 SW12G29   29.85F
MONROE         SUNNY     48  28  45 SW13G21   29.93F
MT. CLEMENS    PTSUNNY   47  29  48 SW20G28   29.88F
PONTIAC        PTSUNNY   45  27  49 S15G23    29.87F
PORT HOPE        N/A     44  30  57 SW8G17    29.80F
PORT HURON     SUNNY     46  28  49 S12       29.88F
TRI CITIES     SUNNY     44  31  60 SW16G24   29.83F
MIDLAND        FAIR      44  31  60 SW15G21   29.81F
TROY           SUNNY     47  27  44 SW16G25   29.90F
SAGINAW HB     SUNNY     43  32  65 SW17      29.82F
$$
MIZ043>046-050>051-056>058-064>065-071>073-077>080-202000-
SOUTHWEST LOWER MICHIGAN

CITY           SKY/WX    TMP DP  RH WIND       PRES   REMARKS
BATTLE CREEK   SUNNY     47  29  49 SW22      29.86F
BENTON HARBOR  SUNNY     51  27  39 S15G25    29.84F
BIG RAPIDS     SUNNY     46  34  65 SW10G16   29.76F
COLDWATER      SUNNY     49  26  40 SW16G23   29.89F
FREMONT        FAIR      47  36  65 S18G24    29.78F
HOLLAND        SUNNY     47  32  56 SW23G32   29.82F
GRAND RAPIDS   PTSUNNY   47  30  51 SW16G24   29.82F
IONIA          FAIR      47  29  50 S12       29.82F
KALAMAZOO      SUNNY     49  27  42 S17       29.87F
LUDINGTON      SUNNY     45  34  66 S18G24    29.74F
MARSHALL       SUNNY     48  27  44 SW18G26   29.86F
MOUNT PLEASANT SUNNY     46  31  56 SW14G21   29.80F
MUSKEGON       PTSUNNY   48  35  60 S18G35    29.80F
SOUTH HAVEN    SUNNY     52  27  38 SW13      29.83F
$$
MIZ016>042-202000-
NORTHERN LOWER MICHIGAN

CITY           SKY/WX    TMP DP  RH WIND       PRES   REMARKS
ALPENA         CLOUDY    42  32  67 S8        29.76F
BEAVER ISLAND  CLOUDY    42  35  75 S7        29.69F
BELLAIRE       SUNNY     43  36  76 S14       29.72F
CADILLAC       CLOUDY    42  35  75 S16G24    29.72F
CHARLEVOIX     MOSUNNY   43  33  68 S9G16     29.73F
FRANKFORT      MOSUNNY   46  37  70 S12G18    29.70F
GAYLORD        CLOUDY    37  30  75 S12       29.71F WCI  29
GRAYLING       SUNNY     41  32  70 S10       29.74F
HARBOR SPRINGS CLOUDY    43  32  66 SW7       29.71F
MANISTEE       CLOUDY    47  35  63 S10G17    29.72F
OSCODA         CLOUDY    43  31  64 SW13      29.77F
PELLSTON       CLOUDY    41  32  70 S6        29.72F
ROGERS CITY    CLOUDY    39  30  69 S7        29.75F WCI  34
TRAVERSE CITY  MOSUNNY   44  33  65 S7        29.70F
$$
MIZ007>008-015-202000-
EASTERN UPPER MICHIGAN

CITY           SKY/WX    TMP DP  RH WIND       PRES   REMARKS
KINROSS        CLOUDY    36  29  75 SE12      29.72F WCI  28
MACKINAC ISLAN CLOUDY    38  29  70 S3        29.72F
NEWBERRY       CLOUDY    35  32  90 SE9       29.67F WCI  28
S. S. MARIE    CLOUDY    35  26  69 SE12      29.72F WCI  27
MUNISING         N/A     37  30  75 S13G22    29.61F WCI  29
$$
MIZ004>006-011>014-085-202000-
CENTRAL UPPER MICHIGAN

CITY           SKY/WX    TMP DP  RH WIND       PRES   REMARKS
MANISTIQUE     CLOUDY    39  31  73 S12       29.66F WCI  32
ESCANABA       PTSUNNY   39  34  81 S13G20    29.64F WCI  32
MENOMINEE      SUNNY     41  30  65 SW12      29.65F
SAWYER-GWINN   MOSUNNY   32  25  74 S12       29.59F WCI  23
$$
MIZ001>003-009>011-084-202000-
WESTERN UPPER MICHIGAN

CITY           SKY/WX    TMP DP  RH WIND       PRES   REMARKS
IRON MOUNTAIN  CLOUDY    38  24  57 SE9       29.58F WCI  31
HOUGHTON       CLOUDY    31  24  75 SE8       29.51F WCI  23
COPPER HARBOR    N/A     36  27  69 SW10G22   29.52F WCI  28
IRONWOOD       CLOUDY    39  28  64 S8        29.46F WCI  33
$$

ABBREVIATIONS USED IN REMARKS
   TC - TEMPERATURE IN CELSIUS
  WCI - WIND CHILL INDEX
   HX - HEAT INDEX
  VSB - VISIBILITY





USA.gov is the U.S. government's official web portal to all federal, state and local government web resources and services.